Zurück zum Katalog

METEOR 2-20 DEB

AktivPO
NORAD 45524·DEBRIS·🇷🇺 Russia

Gestartet Sep 28, 1990 von Plesetsk Cosmodrome

Loading…

Nächste Überflüge (nächste 24 Stunden)

TLE

AktuellSource: Space-Track

Epoche: Sep 11, 2026, 19:21 UTC

1 45524U 90086F   26254.80640701  .00001113  00000-0  74402-3 0  9994
2 45524  82.5224  91.8046 0020877 319.4930  40.4684 14.00099004637443

Verfolge METEOR 2-20 DEB in Echtzeit mit AllMySat

Download on the App Store